Weather History for Custer, SD

Change the Weather History Date:

Sunday, June 3, 2012

  Actual Average Record
Temperature  
Mean Temperature 64 °F 54 °F  
Max Temperature 78 °F 66 °F 91 °F (1977)
Min Temperature 50 °F 42 °F 20 °F (1951)
Degree Days  
Heating Degree Days 1 11  
Month to date heating degree days 15 35  
Since 1 June heating degree days 15 35  
Since 1 July heating degree days 7437 8204  
Cooling Degree Days 0 0  
Month to date cooling degree days 0 0  
Year to date cooling degree days 0 1  
Since 1 June cooling degree days 0 0  
Growing Degree Days 13 (Base 50)    
Moisture  
Dew Point 47 °F    
Average Humidity 62    
Maximum Humidity 89    
Minimum Humidity 35    
Precipitation  
Precipitation 0.00 in 0.13 in 1.08 in (1955)
Month to date precipitation 0.21 0.38  
Year to date precipitation 5.21 7.49  
Sea Level Pressure  
Sea Level Pressure 29.82 in    
Wind  
Wind Speed 7 mph (ENE)    
Max Wind Speed 17 mph    
Max Gust Speed 21 mph    
Visibility 10 miles    
Events      
T = Trace of Precipitation, MM = Missing Value Source: NWS Daily Summary

Daily Weather History Graph

Daily Weather History Graph

Search for Another Location

Airport:

Trip Planner

Search our weather history database for the weather conditions in past years. The results will help you decide how hot, cold, wet, or windy it might be!

Date:

Astronomy

Jun. 03, 2012 Rise Set
Actual Time 5:14 AM MDT 8:31 PM MDT
Civil Twilight 4:39 AM MDT 9:06 PM MDT
Nautical Twilight 3:53 AM MDT 9:52 PM MDT
Astronomical Twilight 2:57 AM MDT 10:49 PM MDT
Moon 7:59 PM MDT (6/3) 4:26 AM MDT (6/3)
Length of Visible Light 16h 27m
Length of Day
15h 17m
Waxing Gibbous, 99% of the Moon is Illuminated
Jun 3
Waxing Gibbous
Jun 4
Full
Jun 11
Last Quarter
Jun 19
New
Jun 26
First Quarter

Hourly Weather History & Observations

Time (MDT) Temp. Dew Point Humidity Pressure Visibility Wind Dir Wind Speed Gust Speed Precip Events Conditions
12:53 AM 52.0 °F 48.9 °F 89% 29.72 in 10.0 mi Calm Calm - N/A   Partly Cloudy
1:53 AM 52.0 °F 48.0 °F 86% 29.72 in 10.0 mi WNW 4.6 mph - N/A   Clear
2:53 AM 52.0 °F 46.0 °F 80% 29.71 in 10.0 mi NW 4.6 mph - N/A   Clear
3:53 AM 54.0 °F 45.0 °F 72% 29.70 in 10.0 mi Calm Calm - N/A   Partly Cloudy
4:53 AM 51.1 °F 46.0 °F 83% 29.73 in 10.0 mi SSW 5.8 mph - N/A   Scattered Clouds
5:53 AM 55.0 °F 44.1 °F 67% 29.74 in 10.0 mi Calm Calm - N/A   Partly Cloudy
6:53 AM 61.0 °F 44.1 °F 54% 29.73 in 10.0 mi North 6.9 mph - N/A   Clear
7:53 AM 66.0 °F 43.0 °F 43% 29.73 in 10.0 mi North 5.8 mph - N/A   Clear
8:53 AM 70.0 °F 43.0 °F 38% 29.79 in 10.0 mi WSW 3.5 mph - N/A   Clear
9:53 AM 70.0 °F 50.0 °F 49% 29.81 in 10.0 mi South 9.2 mph - N/A   Clear
10:53 AM 72.0 °F 46.9 °F 41% 29.82 in 10.0 mi SSE 8.1 mph - N/A   Clear
11:53 AM 73.9 °F 44.1 °F 34% 29.84 in 10.0 mi Variable 6.9 mph - N/A   Clear
12:53 PM 75.9 °F 46.0 °F 35% 29.83 in 10.0 mi SW 9.2 mph - N/A   Clear
1:53 PM 75.9 °F 46.0 °F 35% 29.83 in 10.0 mi SW 9.2 mph - N/A   Clear
2:53 PM 75.0 °F 50.0 °F 41% 29.84 in 10.0 mi East 11.5 mph 17.3 mph N/A   Partly Cloudy
3:53 PM 72.0 °F 48.9 °F 44% 29.85 in 10.0 mi East 13.8 mph 20.7 mph N/A   Partly Cloudy
4:53 PM 71.1 °F 48.9 °F 45% 29.87 in 10.0 mi East 12.7 mph - N/A   Mostly Cloudy
5:53 PM 70.0 °F 48.9 °F 47% 29.87 in 10.0 mi ENE 10.4 mph - N/A   Clear
6:53 PM 68.0 °F 48.9 °F 50% 29.88 in 10.0 mi ENE 12.7 mph 18.4 mph N/A   Partly Cloudy
7:53 PM 64.9 °F 48.0 °F 54% 29.88 in 10.0 mi ENE 10.4 mph - N/A   Clear
8:53 PM 62.1 °F 48.0 °F 60% 29.91 in 10.0 mi ENE 8.1 mph - N/A   Clear
9:53 PM 59.0 °F 46.9 °F 64% 29.93 in 10.0 mi ENE 4.6 mph - N/A   Clear
10:53 PM 57.0 °F 46.9 °F 69% 29.94 in 10.0 mi NE 4.6 mph - N/A   Clear
11:53 PM 55.0 °F 46.9 °F 74% 29.94 in 10.0 mi ENE 4.6 mph - N/A   Clear